When you browse on this site, cookies collect data to enhance your experience and personalize the content and advertising you see.
Visit our Privacy Policy to learn more. By continuing to use the site, you agree to this use of cookies and data.
  • In Portugal
  • List of Countries
  • For 7 days
  • Water Temperature
  • Satellite Maps
  • Weather Map
  • Weather Widgets
  • user-avatar
    Login

    Hourly Weather Bugojno

    Today, 16 January, Wednesday

    Time Temperature Precipitation Wind Pressure Humidity
    00:00 -7°C° 0 mm 2 mps 712 mmHg 76%
    01:00 -4°C° 0 mm 1 mps 711 mmHg 78%
    02:00 -4°C° 0 mm 1 mps 711 mmHg 78%
    03:00 -6°C° 0 mm 2 mps 711 mmHg 78%
    04:00 -5°C° 0 mm 2 mps 711 mmHg 79%
    05:00 -5°C° 0 mm 2 mps 711 mmHg 81%
    06:00 -5°C° 0 mm 2 mps 711 mmHg 83%
    07:00 -4°C° 0 mm 2 mps 711 mmHg 85%
    08:00 -2°C° 0 mm 2 mps 711 mmHg 86%
    09:00 +1°C° 0 mm 2 mps 712 mmHg 87%
    10:00 +2°C° 0 mm 2 mps 712 mmHg 88%
    11:00 +3°C° 0 mm 2 mps 712 mmHg 91%
    12:00 +3°C° 0 mm 2 mps 712 mmHg 94%
    13:00 +4°C° 0 mm 2 mps 712 mmHg 97%
    14:00 +3°C° 0 mm 2 mps 712 mmHg 96%
    15:00 +3°C° 0 mm 2 mps 712 mmHg 95%
    16:00 +2°C° 0 mm 2 mps 711 mmHg 94%
    17:00 +1°C° 0 mm 2 mps 711 mmHg 94%
    18:00 -1°C° 0 mm 2 mps 711 mmHg 95%
    19:00 -2°C° 0 mm 2 mps 711 mmHg 95%
    20:00 -2°C° 0 mm 2 mps 711 mmHg 95%
    21:00 -2°C° 0 mm 2 mps 711 mmHg 95%
    22:00 -2°C° 0 mm 2 mps 711 mmHg 95%
    23:00 -2°C° 0 mm 2 mps 711 mmHg 94%

    Tomorrow, 17 January, Thursday

    Time Temperature Precipitation Wind Pressure Humidity
    00:00 -4°C° 0 mm 3 mps 711 mmHg 93%
    01:00 -4°C° 0 mm 3 mps 711 mmHg 92%
    02:00 -2°C° 0 mm 3 mps 711 mmHg 92%
    03:00 -2°C° 0 mm 3 mps 711 mmHg 93%
    04:00 -2°C° 0 mm 3 mps 711 mmHg 93%
    05:00 -2°C° 0 mm 3 mps 711 mmHg 93%
    06:00 -2°C° 0 mm 3 mps 711 mmHg 92%
    07:00 -2°C° 0 mm 3 mps 711 mmHg 92%
    08:00 0°C° 0 mm 3 mps 711 mmHg 93%
    09:00 +1°C° 0 mm 3 mps 711 mmHg 94%
    10:00 +3°C° 0 mm 3 mps 711 mmHg 95%
    11:00 +3°C° 0 mm 3 mps 711 mmHg 95%
    12:00 +4°C° 0 mm 3 mps 711 mmHg 96%
    13:00 +4°C° 0 mm 3 mps 710 mmHg 96%
    14:00 +4°C° 0 mm 3 mps 710 mmHg 95%
    15:00 +3°C° 0 mm 3 mps 710 mmHg 95%
    16:00 +3°C° 0 mm 3 mps 710 mmHg 94%
    17:00 +3°C° 0 mm 3 mps 710 mmHg 94%
    18:00 +2°C° 0 mm 3 mps 710 mmHg 94%
    19:00 +2°C° 0 mm 3 mps 710 mmHg 94%
    20:00 +2°C° 0 mm 3 mps 710 mmHg 94%
    21:00 +2°C° 0 mm 3 mps 710 mmHg 94%
    22:00 +2°C° 0 mm 3 mps 709 mmHg 94%
    23:00 +2°C° 0 mm 3 mps 709 mmHg 94%

    Day after tomorrow, 18 January, Friday

    Time Temperature Precipitation Wind Pressure Humidity
    00:00 +2°C° 0 mm 3 mps 709 mmHg 94%
    01:00 +2°C° 0 mm 3 mps 709 mmHg 94%
    02:00 +2°C° 0 mm 3 mps 709 mmHg 94%
    03:00 +2°C° 0 mm 3 mps 709 mmHg 94%
    04:00 +2°C° 0 mm 3 mps 709 mmHg 94%
    05:00 +2°C° 0 mm 3 mps 709 mmHg 94%
    06:00 +2°C° 0 mm 3 mps 709 mmHg 94%
    07:00 +2°C° 0 mm 3 mps 710 mmHg 94%
    08:00 +3°C° 0.2 mm 2 mps 710 mmHg 95%
    09:00 +3°C° 0.2 mm 2 mps 711 mmHg 96%
    10:00 +5°C° 0.2 mm 1 mps 712 mmHg 97%
    11:00 +4°C° 1.2 mm 1 mps 712 mmHg 97%
    12:00 +3°C° 1.2 mm 2 mps 712 mmHg 97%
    13:00 +2°C° 1.2 mm 2 mps 712 mmHg 97%
    14:00 +2°C° 0.8 mm 2 mps 712 mmHg 96%
    15:00 +2°C° 0.8 mm 1 mps 712 mmHg 96%
    16:00 +2°C° 0.8 mm 1 mps 712 mmHg 96%
    17:00 +2°C° 0.2 mm 1 mps 712 mmHg 96%
    18:00 +1°C° 0.2 mm 1 mps 712 mmHg 96%
    19:00 +1°C° 0.2 mm 1 mps 712 mmHg 96%
    20:00 +1°C° 0.1 mm 1 mps 712 mmHg 96%
    21:00 +1°C° 0.1 mm 1 mps 712 mmHg 95%
    22:00 +1°C° 0.1 mm 1 mps 712 mmHg 95%
    23:00 +2°C° 0 mm 1 mps 712 mmHg 95%

    19 January, Saturday

    Time Temperature Precipitation Wind Pressure Humidity
    00:00 +2°C° 0 mm 1 mps 712 mmHg 95%
    01:00 +3°C° 0 mm 1 mps 712 mmHg 95%
    02:00 +3°C° 0 mm 1 mps 712 mmHg 95%
    03:00 +2°C° 0 mm 2 mps 711 mmHg 95%
    04:00 +2°C° 0 mm 2 mps 711 mmHg 95%
    05:00 +2°C° 0 mm 2 mps 711 mmHg 95%
    06:00 +3°C° 0 mm 2 mps 711 mmHg 95%
    07:00 +3°C° 0 mm 2 mps 711 mmHg 95%
    08:00 +3°C° 0 mm 2 mps 711 mmHg 96%
    09:00 +4°C° 0 mm 2 mps 710 mmHg 98%
    10:00 +5°C° 0 mm 2 mps 710 mmHg 99%
    11:00 +5°C° 0 mm 2 mps 710 mmHg 99%
    12:00 +5°C° 0 mm 2 mps 710 mmHg 99%
    13:00 +5°C° 0 mm 2 mps 709 mmHg 99%
    14:00 +5°C° 0 mm 2 mps 709 mmHg 99%
    15:00 +5°C° 0 mm 2 mps 708 mmHg 99%
    16:00 +4°C° 0 mm 2 mps 708 mmHg 99%
    17:00 +4°C° 0 mm 2 mps 708 mmHg 98%
    18:00 +4°C° 0 mm 2 mps 708 mmHg 97%
    19:00 +4°C° 0 mm 2 mps 708 mmHg 97%
    20:00 +4°C° 0 mm 2 mps 708 mmHg 97%
    21:00 +4°C° 0 mm 2 mps 708 mmHg 97%
    22:00 +4°C° 0 mm 2 mps 708 mmHg 96%
    23:00 +4°C° 0.1 mm 2 mps 708 mmHg 96%

    20 January, Sunday

    Time Temperature Precipitation Wind Pressure Humidity
    00:00 +4°C° 0.1 mm 2 mps 708 mmHg 96%
    01:00 +4°C° 0.1 mm 2 mps 707 mmHg 96%
    02:00 +4°C° 0.2 mm 2 mps 707 mmHg 96%
    03:00 +4°C° 0.2 mm 2 mps 707 mmHg 96%
    04:00 +4°C° 0.2 mm 2 mps 707 mmHg 96%
    05:00 +4°C° 0.8 mm 2 mps 707 mmHg 97%
    06:00 +4°C° 0.8 mm 2 mps 707 mmHg 97%
    07:00 +5°C° 0.8 mm 1 mps 707 mmHg 97%
    08:00 +5°C° 1.1 mm 1 mps 707 mmHg 97%
    09:00 +5°C° 1.1 mm 1 mps 707 mmHg 98%
    10:00 +5°C° 1.1 mm 1 mps 708 mmHg 99%
    11:00 +6°C° 0.5 mm 1 mps 707 mmHg 99%
    12:00 +6°C° 0.5 mm 1 mps 707 mmHg 99%
    13:00 +6°C° 0.5 mm 1 mps 707 mmHg 99%
    14:00 +6°C° 0.2 mm 1 mps 707 mmHg 99%
    15:00 +6°C° 0.2 mm 1 mps 707 mmHg 98%
    16:00 +5°C° 0.2 mm 0 mps 707 mmHg 98%
    17:00 +5°C° 0 mm 1 mps 708 mmHg 97%
    18:00 +4°C° 0 mm 1 mps 708 mmHg 96%
    19:00 +3°C° 0 mm 1 mps 708 mmHg 95%
    20:00 +3°C° 0 mm 1 mps 708 mmHg 94%
    21:00 +2°C° 0 mm 1 mps 709 mmHg 94%
    22:00 +2°C° 0 mm 1 mps 709 mmHg 94%
    23:00 +2°C° 0 mm 1 mps 709 mmHg 94%

    21 January, Monday

    Time Temperature Precipitation Wind Pressure Humidity
    00:00 +1°C° 0 mm 1 mps 709 mmHg 93%
    01:00 +1°C° 0 mm 1 mps 709 mmHg 93%
    02:00 +1°C° 0 mm 1 mps 709 mmHg 91%
    03:00 +1°C° 0 mm 1 mps 709 mmHg 90%
    04:00 -1°C° 0 mm 0 mps 709 mmHg 89%
    05:00 -1°C° 0 mm 0 mps 709 mmHg 89%
    06:00 -1°C° 0 mm 0 mps 709 mmHg 89%
    07:00 0°C° 0 mm 0 mps 710 mmHg 89%
    08:00 +1°C° 0 mm 0 mps 710 mmHg 90%
    09:00 +3°C° 0 mm 1 mps 711 mmHg 91%
    10:00 +4°C° 0 mm 1 mps 711 mmHg 92%
    11:00 +4°C° 0 mm 1 mps 711 mmHg 93%
    12:00 +4°C° 0 mm 1 mps 711 mmHg 94%
    13:00 +5°C° 0 mm 1 mps 711 mmHg 94%
    14:00 +4°C° 0 mm 1 mps 711 mmHg 94%
    15:00 +4°C° 0 mm 1 mps 711 mmHg 94%
    16:00 +4°C° 0 mm 1 mps 711 mmHg 94%
    17:00 +3°C° 0 mm 1 mps 711 mmHg 95%
    18:00 +3°C° 0 mm 1 mps 711 mmHg 96%
    19:00 +2°C° 0 mm 1 mps 711 mmHg 97%
    20:00 +2°C° 0.1 mm 1 mps 711 mmHg 97%
    21:00 +2°C° 0.1 mm 1 mps 711 mmHg 97%
    22:00 +1°C° 0.1 mm 1 mps 711 mmHg 97%
    23:00 +1°C° 0.1 mm 1 mps 711 mmHg 97%
    Show more